#datetime,building,power
2022-02-17T00:00:00,pth,2.40
2022-02-17T00:01:00,pth,2.40
2022-02-17T00:03:00,pth,4.80
2022-02-17T00:05:00,pth,3.60
2022-02-17T00:07:00,pth,4.80
2022-02-17T00:09:00,pth,3.60
2022-02-17T00:11:00,pth,3.60
2022-02-17T00:13:00,pth,4.80
2022-02-17T00:14:00,pth,2.40
2022-02-17T00:16:00,pth,3.60
2022-02-17T00:17:00,pth,2.40
2022-02-17T00:19:00,pth,3.60
2022-02-17T00:21:00,pth,4.80
2022-02-17T00:23:00,pth,4.80
2022-02-17T00:25:00,pth,3.60
2022-02-17T00:27:00,pth,4.80
2022-02-17T00:29:00,pth,3.60
2022-02-17T00:31:00,pth,4.80
2022-02-17T00:33:00,pth,4.80
2022-02-17T00:35:00,pth,3.60
2022-02-17T00:36:00,pth,2.40
2022-02-17T00:38:00,pth,3.60
2022-02-17T00:40:00,pth,4.80
2022-02-17T00:42:00,pth,3.60
2022-02-17T00:44:00,pth,4.80
2022-02-17T00:46:00,pth,4.80
2022-02-17T00:48:00,pth,3.60
2022-02-17T00:49:00,pth,2.40
2022-02-17T00:51:00,pth,4.80
2022-02-17T00:52:00,pth,2.40
2022-02-17T00:54:00,pth,3.60
2022-02-17T00:56:00,pth,4.80
2022-02-17T00:57:00,pth,2.40
2022-02-17T00:58:00,pth,1.20
2022-02-17T01:00:00,pth,4.80
2022-02-17T01:02:00,pth,3.60
2022-02-17T01:04:00,pth,4.80
2022-02-17T01:05:00,pth,1.20
2022-02-17T01:08:00,pth,4.80
2022-02-17T01:09:00,pth,3.60
2022-02-17T01:10:00,pth,2.40
2022-02-17T01:11:00,pth,2.40
2022-02-17T01:13:00,pth,4.80
2022-02-17T01:15:00,pth,3.60
2022-02-17T01:17:00,pth,3.60
2022-02-17T01:19:00,pth,4.80
2022-02-17T01:20:00,pth,2.40
2022-02-17T01:22:00,pth,3.60
2022-02-17T01:24:00,pth,4.80
2022-02-17T01:25:00,pth,1.20
2022-02-17T01:26:00,pth,2.40
2022-02-17T01:28:00,pth,4.80
2022-02-17T01:29:00,pth,2.40
2022-02-17T01:31:00,pth,3.60
2022-02-17T01:33:00,pth,3.60
2022-02-17T01:35:00,pth,4.80
2022-02-17T01:36:00,pth,1.20
2022-02-17T01:38:00,pth,4.80
2022-02-17T01:39:00,pth,2.40
2022-02-17T01:41:00,pth,3.60
2022-02-17T01:42:00,pth,2.40
2022-02-17T01:44:00,pth,4.80
2022-02-17T01:46:00,pth,3.60
2022-02-17T01:48:00,pth,4.80
2022-02-17T01:49:00,pth,2.40
2022-02-17T01:51:00,pth,4.80
2022-02-17T01:52:00,pth,1.20
2022-02-17T01:53:00,pth,2.40
2022-02-17T01:54:00,pth,1.20
2022-02-17T01:56:00,pth,4.80
2022-02-17T01:58:00,pth,3.60
2022-02-17T02:00:00,pth,3.60
2022-02-17T02:01:00,pth,2.40
2022-02-17T02:03:00,pth,4.80
2022-02-17T02:04:00,pth,2.40
2022-02-17T02:06:00,pth,3.60
2022-02-17T02:07:00,pth,2.40
2022-02-17T02:09:00,pth,3.60
2022-02-17T02:10:00,pth,2.40
2022-02-17T02:12:00,pth,3.60
2022-02-17T02:13:00,pth,2.40
2022-02-17T02:14:00,pth,2.40
2022-02-17T02:16:00,pth,3.60
2022-02-17T02:17:00,pth,2.40
2022-02-17T02:19:00,pth,3.60
2022-02-17T02:21:00,pth,3.60
2022-02-17T02:22:00,pth,2.40
2022-02-17T02:24:00,pth,3.60
2022-02-17T02:25:00,pth,2.40
2022-02-17T02:27:00,pth,3.60
2022-02-17T02:29:00,pth,4.80
2022-02-17T02:31:00,pth,3.60
2022-02-17T02:33:00,pth,3.60
2022-02-17T02:35:00,pth,3.60
2022-02-17T02:36:00,pth,2.40
2022-02-17T02:38:00,pth,3.60
2022-02-17T02:40:00,pth,3.60
2022-02-17T02:41:00,pth,2.40
2022-02-17T02:42:00,pth,1.20
2022-02-17T02:44:00,pth,3.60
2022-02-17T02:46:00,pth,3.60
2022-02-17T02:48:00,pth,4.80
2022-02-17T02:49:00,pth,1.20
2022-02-17T02:50:00,pth,2.40
2022-02-17T02:52:00,pth,3.60
2022-02-17T02:54:00,pth,3.60
2022-02-17T02:56:00,pth,4.80
2022-02-17T02:58:00,pth,3.60
2022-02-17T02:59:00,pth,1.20
2022-02-17T03:01:00,pth,3.60
2022-02-17T03:02:00,pth,2.40
2022-02-17T03:04:00,pth,3.60
2022-02-17T03:05:00,pth,1.20
2022-02-17T03:07:00,pth,4.80
2022-02-17T03:09:00,pth,3.60
2022-02-17T03:10:00,pth,2.40
2022-02-17T03:12:00,pth,3.60
2022-02-17T03:13:00,pth,1.20
2022-02-17T03:15:00,pth,4.80
2022-02-17T03:16:00,pth,2.40
2022-02-17T03:18:00,pth,3.60
2022-02-17T03:20:00,pth,4.80
2022-02-17T03:21:00,pth,1.20
2022-02-17T03:23:00,pth,4.80
2022-02-17T03:25:00,pth,4.80
2022-02-17T03:27:00,pth,3.60
2022-02-17T03:29:00,pth,4.80
2022-02-17T03:30:00,pth,2.40
2022-02-17T03:32:00,pth,4.80
2022-02-17T03:33:00,pth,2.40
2022-02-17T03:35:00,pth,4.80
2022-02-17T03:37:00,pth,3.60
2022-02-17T03:39:00,pth,3.60
2022-02-17T03:41:00,pth,4.80
2022-02-17T03:42:00,pth,1.20
2022-02-17T03:43:00,pth,2.40
2022-02-17T03:45:00,pth,4.80
2022-02-17T03:47:00,pth,3.60
2022-02-17T03:49:00,pth,3.60
2022-02-17T03:50:00,pth,2.40
2022-02-17T03:52:00,pth,4.80
2022-02-17T03:54:00,pth,3.60
2022-02-17T03:56:00,pth,4.80
2022-02-17T03:57:00,pth,1.20
2022-02-17T03:58:00,pth,2.40
2022-02-17T04:00:00,pth,4.80
2022-02-17T04:02:00,pth,3.60
2022-02-17T04:04:00,pth,4.80
2022-02-17T04:06:00,pth,3.60
2022-02-17T04:07:00,pth,2.40
2022-02-17T04:09:00,pth,3.60
2022-02-17T04:11:00,pth,3.60
2022-02-17T04:12:00,pth,2.40
2022-02-17T04:13:00,pth,2.40
2022-02-17T04:15:00,pth,3.60
2022-02-17T04:16:00,pth,2.40
2022-02-17T04:17:00,pth,2.40
2022-02-17T04:19:00,pth,3.60
2022-02-17T04:20:00,pth,2.40
2022-02-17T04:22:00,pth,3.60
2022-02-17T04:23:00,pth,2.40
2022-02-17T04:25:00,pth,3.60
2022-02-17T04:27:00,pth,4.80
2022-02-17T04:29:00,pth,3.60
2022-02-17T04:31:00,pth,3.60
2022-02-17T04:32:00,pth,2.40
2022-02-17T04:33:00,pth,2.40
2022-02-17T04:35:00,pth,3.60
2022-02-17T04:37:00,pth,3.60
2022-02-17T04:39:00,pth,4.80
2022-02-17T04:40:00,pth,1.20
2022-02-17T04:42:00,pth,4.80
2022-02-17T04:44:00,pth,3.60
2022-02-17T04:46:00,pth,3.60
2022-02-17T04:48:00,pth,4.80
2022-02-17T04:50:00,pth,3.60
2022-02-17T04:52:00,pth,3.60
2022-02-17T04:54:00,pth,4.80
2022-02-17T04:55:00,pth,1.20
2022-02-17T04:57:00,pth,4.80
2022-02-17T04:58:00,pth,1.20
2022-02-17T05:00:00,pth,4.80
2022-02-17T05:02:00,pth,3.60
2022-02-17T05:04:00,pth,3.60
2022-02-17T05:05:00,pth,2.40
2022-02-17T05:07:00,pth,3.60
2022-02-17T05:09:00,pth,3.60
2022-02-17T05:11:00,pth,3.60
2022-02-17T05:13:00,pth,3.60
2022-02-17T05:14:00,pth,2.40
2022-02-17T05:16:00,pth,3.60
2022-02-17T05:17:00,pth,2.40
2022-02-17T05:19:00,pth,3.60
2022-02-17T05:20:00,pth,2.40
2022-02-17T05:22:00,pth,3.60
2022-02-17T05:24:00,pth,3.60
2022-02-17T05:25:00,pth,2.40
2022-02-17T05:27:00,pth,3.60
2022-02-17T05:28:00,pth,2.40
2022-02-17T05:30:00,pth,3.60
2022-02-17T05:32:00,pth,3.60
2022-02-17T05:34:00,pth,3.60
2022-02-17T05:36:00,pth,4.80
2022-02-17T05:37:00,pth,1.20
2022-02-17T05:38:00,pth,2.40
2022-02-17T05:40:00,pth,3.60
2022-02-17T05:41:00,pth,2.40
2022-02-17T05:42:00,pth,1.20
2022-02-17T05:44:00,pth,4.80
2022-02-17T05:46:00,pth,3.60
2022-02-17T05:48:00,pth,3.60
2022-02-17T05:49:00,pth,2.40
2022-02-17T05:51:00,pth,3.60
2022-02-17T05:53:00,pth,4.80
2022-02-17T05:55:00,pth,3.60
2022-02-17T05:57:00,pth,3.60
2022-02-17T05:59:00,pth,4.80
2022-02-17T06:00:00,pth,1.20
2022-02-17T06:02:00,pth,3.60
2022-02-17T06:04:00,pth,4.80
2022-02-17T06:06:00,pth,3.60
2022-02-17T06:08:00,pth,3.60
2022-02-17T06:09:00,pth,2.40
2022-02-17T06:11:00,pth,3.60
2022-02-17T06:12:00,pth,2.40
2022-02-17T06:14:00,pth,3.60
2022-02-17T06:16:00,pth,3.60
2022-02-17T06:18:00,pth,3.60
2022-02-17T06:20:00,pth,3.60
2022-02-17T06:22:00,pth,4.80
2022-02-17T06:24:00,pth,3.60
2022-02-17T06:26:00,pth,3.60
2022-02-17T06:28:00,pth,4.80
2022-02-17T06:30:00,pth,3.60
2022-02-17T06:31:00,pth,2.40
2022-02-17T06:33:00,pth,3.60
2022-02-17T06:35:00,pth,3.60
2022-02-17T06:37:00,pth,4.80
2022-02-17T06:39:00,pth,3.60
2022-02-17T06:41:00,pth,3.60
2022-02-17T06:43:00,pth,4.80
2022-02-17T06:45:00,pth,3.60
2022-02-17T06:47:00,pth,4.80
2022-02-17T06:49:00,pth,4.80
2022-02-17T06:50:00,pth,2.40
2022-02-17T06:52:00,pth,3.60
2022-02-17T06:53:00,pth,2.40
2022-02-17T06:54:00,pth,2.40
2022-02-17T06:56:00,pth,3.60
2022-02-17T06:58:00,pth,4.80
2022-02-17T07:00:00,pth,3.60
2022-02-17T07:02:00,pth,4.80
2022-02-17T07:04:00,pth,3.60
2022-02-17T07:06:00,pth,4.80
2022-02-17T07:07:00,pth,1.20
2022-02-17T07:09:00,pth,4.80
2022-02-17T07:11:00,pth,3.60
2022-02-17T07:13:00,pth,4.80
2022-02-17T07:15:00,pth,3.60
2022-02-17T07:17:00,pth,3.60
2022-02-17T07:18:00,pth,2.40
2022-02-17T07:20:00,pth,3.60
2022-02-17T07:22:00,pth,4.80
2022-02-17T07:24:00,pth,4.80
2022-02-17T07:26:00,pth,3.60
2022-02-17T07:28:00,pth,3.60
2022-02-17T07:29:00,pth,1.20
2022-02-17T07:31:00,pth,3.60
2022-02-17T07:32:00,pth,1.20
2022-02-17T07:34:00,pth,3.60
2022-02-17T07:36:00,pth,3.60
2022-02-17T07:37:00,pth,1.20
2022-02-17T07:39:00,pth,3.60
2022-02-17T07:40:00,pth,1.20
2022-02-17T07:42:00,pth,3.60
2022-02-17T07:44:00,pth,3.60
2022-02-17T07:46:00,pth,3.60
2022-02-17T07:48:00,pth,4.80
2022-02-17T07:50:00,pth,7.20
2022-02-17T07:51:00,pth,3.60
2022-02-17T07:53:00,pth,4.80
2022-02-17T07:54:00,pth,1.20
2022-02-17T07:56:00,pth,3.60
2022-02-17T07:58:00,pth,3.60
2022-02-17T08:00:00,pth,3.60
2022-02-17T08:02:00,pth,3.60
2022-02-17T08:03:00,pth,2.40
2022-02-17T08:05:00,pth,3.60
2022-02-17T08:07:00,pth,3.60
2022-02-17T08:08:00,pth,1.20
2022-02-17T08:10:00,pth,3.60
2022-02-17T08:11:00,pth,2.40
2022-02-17T08:13:00,pth,3.60
2022-02-17T08:14:00,pth,2.40
2022-02-17T08:16:00,pth,3.60
2022-02-17T08:18:00,pth,3.60
2022-02-17T08:20:00,pth,3.60
2022-02-17T08:22:00,pth,4.80
2022-02-17T08:24:00,pth,3.60
2022-02-17T08:26:00,pth,4.80
2022-02-17T08:27:00,pth,1.20
2022-02-17T08:29:00,pth,4.80
2022-02-17T08:30:00,pth,1.20
2022-02-17T08:32:00,pth,4.80
2022-02-17T08:33:00,pth,1.20
2022-02-17T08:35:00,pth,3.60
2022-02-17T08:37:00,pth,3.60
2022-02-17T08:39:00,pth,6.00
2022-02-17T08:41:00,pth,4.80
2022-02-17T08:42:00,pth,1.20
2022-02-17T08:44:00,pth,3.60
2022-02-17T08:46:00,pth,4.80
2022-02-17T08:47:00,pth,1.20
2022-02-17T08:48:00,pth,2.40
2022-02-17T08:50:00,pth,3.60
2022-02-17T08:52:00,pth,4.80
2022-02-17T08:54:00,pth,4.80
2022-02-17T08:56:00,pth,3.60
2022-02-17T08:57:00,pth,2.40
2022-02-17T08:59:00,pth,3.60
2022-02-17T09:01:00,pth,3.60
2022-02-17T09:03:00,pth,3.60
2022-02-17T09:04:00,pth,2.40
2022-02-17T09:06:00,pth,3.60
2022-02-17T09:07:00,pth,2.40
2022-02-17T09:09:00,pth,3.60
2022-02-17T09:10:00,pth,2.40
2022-02-17T09:12:00,pth,3.60
2022-02-17T09:14:00,pth,4.80
2022-02-17T09:15:00,pth,2.40
2022-02-17T09:17:00,pth,3.60
2022-02-17T09:19:00,pth,4.80
2022-02-17T09:20:00,pth,1.20
2022-02-17T09:22:00,pth,3.60
2022-02-17T09:24:00,pth,4.80
2022-02-17T09:26:00,pth,3.60
2022-02-17T09:27:00,pth,1.20
2022-02-17T09:29:00,pth,3.60
2022-02-17T09:31:00,pth,3.60
2022-02-17T09:33:00,pth,3.60
2022-02-17T09:34:00,pth,2.40
2022-02-17T09:35:00,pth,1.20
2022-02-17T09:36:00,pth,2.40
2022-02-17T09:38:00,pth,3.60
2022-02-17T09:39:00,pth,2.40
2022-02-17T09:41:00,pth,3.60
2022-02-17T09:43:00,pth,3.60
2022-02-17T09:45:00,pth,3.60
2022-02-17T09:47:00,pth,3.60
2022-02-17T09:49:00,pth,4.80
2022-02-17T09:50:00,pth,1.20
2022-02-17T09:52:00,pth,4.80
2022-02-17T09:53:00,pth,1.20
2022-02-17T09:55:00,pth,4.80
2022-02-17T09:57:00,pth,2.40
2022-02-17T09:58:00,pth,2.40
2022-02-17T10:00:00,pth,3.60
2022-02-17T10:01:00,pth,1.20
2022-02-17T10:03:00,pth,3.60
2022-02-17T10:05:00,pth,3.60
2022-02-17T10:07:00,pth,3.60
2022-02-17T10:09:00,pth,3.60
2022-02-17T10:10:00,pth,2.40
2022-02-17T10:12:00,pth,3.60
2022-02-17T10:13:00,pth,1.20
2022-02-17T10:15:00,pth,3.60
2022-02-17T10:17:00,pth,3.60
2022-02-17T10:18:00,pth,2.40
2022-02-17T10:20:00,pth,3.60
2022-02-17T10:21:00,pth,3.60
2022-02-17T10:22:00,pth,3.60
2022-02-17T10:24:00,pth,3.60
2022-02-17T10:26:00,pth,3.60
2022-02-17T10:27:00,pth,2.40
2022-02-17T10:29:00,pth,3.60
2022-02-17T10:31:00,pth,3.60
2022-02-17T10:33:00,pth,3.60
2022-02-17T10:34:00,pth,2.40
2022-02-17T10:35:00,pth,1.20
2022-02-17T10:37:00,pth,3.60
2022-02-17T10:39:00,pth,4.80
2022-02-17T10:41:00,pth,3.60
2022-02-17T10:43:00,pth,3.60
2022-02-17T10:44:00,pth,1.20
2022-02-17T10:45:00,pth,2.40
2022-02-17T10:47:00,pth,3.60
2022-02-17T10:49:00,pth,2.40
2022-02-17T10:50:00,pth,2.40
2022-02-17T10:52:00,pth,3.60
2022-02-17T10:54:00,pth,3.60
2022-02-17T10:56:00,pth,3.60
2022-02-17T10:57:00,pth,2.40
2022-02-17T10:58:00,pth,1.20
2022-02-17T11:00:00,pth,3.60
2022-02-17T11:01:00,pth,2.40
2022-02-17T11:02:00,pth,1.20
2022-02-17T11:04:00,pth,3.60
2022-02-17T11:05:00,pth,2.40
2022-02-17T11:06:00,pth,1.20
2022-02-17T11:08:00,pth,2.40
2022-02-17T11:09:00,pth,2.40
2022-02-17T11:10:00,pth,1.20
2022-02-17T11:12:00,pth,3.60
2022-02-17T11:14:00,pth,4.80
2022-02-17T11:15:00,pth,2.40
2022-02-17T11:16:00,pth,1.20
2022-02-17T11:18:00,pth,4.80
2022-02-17T11:20:00,pth,3.60
2022-02-17T11:22:00,pth,3.60
2022-02-17T11:23:00,pth,1.20
2022-02-17T11:25:00,pth,3.60
2022-02-17T11:26:00,pth,1.20
2022-02-17T11:28:00,pth,3.60
2022-02-17T11:30:00,pth,3.60
2022-02-17T11:32:00,pth,3.60
2022-02-17T11:34:00,pth,3.60
2022-02-17T11:35:00,pth,1.20
2022-02-17T11:37:00,pth,3.60
2022-02-17T11:38:00,pth,2.40
2022-02-17T11:40:00,pth,2.40
2022-02-17T11:41:00,pth,2.40
2022-02-17T11:43:00,pth,2.40
2022-02-17T11:45:00,pth,3.60
2022-02-17T11:47:00,pth,2.40
2022-02-17T11:49:00,pth,3.60
2022-02-17T11:51:00,pth,2.40
2022-02-17T11:53:00,pth,3.60
2022-02-17T11:55:00,pth,3.60
2022-02-17T11:56:00,pth,1.20
2022-02-17T11:58:00,pth,3.60
2022-02-17T12:00:00,pth,2.40
2022-02-17T12:02:00,pth,3.60
2022-02-17T12:04:00,pth,2.40
2022-02-17T12:06:00,pth,3.60
2022-02-17T12:08:00,pth,3.60
2022-02-17T12:10:00,pth,3.60
2022-02-17T12:12:00,pth,2.40
2022-02-17T12:14:00,pth,3.60
2022-02-17T12:16:00,pth,2.40
2022-02-17T12:18:00,pth,3.60
2022-02-17T12:20:00,pth,2.40
2022-02-17T12:23:00,pth,3.60
2022-02-17T12:24:00,pth,3.60
2022-02-17T12:25:00,pth,1.20
2022-02-17T12:27:00,pth,3.60
2022-02-17T12:29:00,pth,3.60
2022-02-17T12:30:00,pth,2.40
2022-02-17T12:32:00,pth,3.60
2022-02-17T12:33:00,pth,1.20
2022-02-17T12:34:00,pth,2.40
2022-02-17T12:36:00,pth,7.20
2022-02-17T12:37:00,pth,2.40
2022-02-17T12:38:00,pth,3.60
2022-02-17T12:40:00,pth,7.20
2022-02-17T12:42:00,pth,3.60
2022-02-17T12:44:00,pth,7.20
2022-02-17T12:46:00,pth,7.20
2022-02-17T12:47:00,pth,2.40
2022-02-17T12:49:00,pth,7.20
2022-02-17T12:50:00,pth,1.20
2022-02-17T12:52:00,pth,3.60
2022-02-17T12:54:00,pth,3.60
2022-02-17T12:56:00,pth,4.80
2022-02-17T12:58:00,pth,4.80
2022-02-17T12:59:00,pth,1.20
2022-02-17T13:01:00,pth,3.60
2022-02-17T13:03:00,pth,3.60
2022-02-17T13:05:00,pth,3.60
2022-02-17T13:06:00,pth,2.40
2022-02-17T13:08:00,pth,3.60
2022-02-17T13:10:00,pth,4.80
2022-02-17T13:11:00,pth,1.20
2022-02-17T13:13:00,pth,3.60
2022-02-17T13:15:00,pth,3.60
2022-02-17T13:17:00,pth,4.80
2022-02-17T13:18:00,pth,1.20
2022-02-17T13:20:00,pth,3.60
2022-02-17T13:21:00,pth,2.40
2022-02-17T13:23:00,pth,3.60
2022-02-17T13:24:00,pth,1.20
2022-02-17T13:26:00,pth,3.60
2022-02-17T13:28:00,pth,3.60
2022-02-17T13:30:00,pth,3.60
2022-02-17T13:32:00,pth,3.60
2022-02-17T13:34:00,pth,3.60
2022-02-17T13:36:00,pth,3.60
2022-02-17T13:37:00,pth,2.40
2022-02-17T13:39:00,pth,3.60
2022-02-17T13:40:00,pth,2.40
2022-02-17T13:41:00,pth,1.20
2022-02-17T13:43:00,pth,3.60
2022-02-17T13:45:00,pth,3.60
2022-02-17T13:47:00,pth,3.60
2022-02-17T13:48:00,pth,2.40
2022-02-17T13:50:00,pth,3.60
2022-02-17T13:51:00,pth,1.20
2022-02-17T13:53:00,pth,3.60
2022-02-17T13:54:00,pth,1.20
2022-02-17T13:55:00,pth,2.40
2022-02-17T13:57:00,pth,3.60
2022-02-17T13:59:00,pth,3.60
2022-02-17T14:00:00,pth,1.20
2022-02-17T14:02:00,pth,3.60
2022-02-17T14:04:00,pth,3.60
2022-02-17T14:05:00,pth,2.40
2022-02-17T14:07:00,pth,3.60
2022-02-17T14:09:00,pth,3.60
2022-02-17T14:11:00,pth,2.40
2022-02-17T14:13:00,pth,3.60
2022-02-17T14:15:00,pth,4.80
2022-02-17T14:16:00,pth,1.20
2022-02-17T14:18:00,pth,3.60
2022-02-17T14:20:00,pth,2.40
2022-02-17T14:21:00,pth,2.40
2022-02-17T14:22:00,pth,1.20
2022-02-17T14:24:00,pth,3.60
2022-02-17T14:27:00,pth,4.80
2022-02-17T14:28:00,pth,2.40
2022-02-17T14:30:00,pth,3.60
2022-02-17T14:31:00,pth,1.20
2022-02-17T14:33:00,pth,3.60
2022-02-17T14:35:00,pth,3.60
2022-02-17T14:36:00,pth,1.20
2022-02-17T14:38:00,pth,3.60
2022-02-17T14:40:00,pth,2.40
2022-02-17T14:42:00,pth,3.60
2022-02-17T14:43:00,pth,2.40
2022-02-17T14:45:00,pth,2.40
2022-02-17T14:47:00,pth,3.60
2022-02-17T14:48:00,pth,1.20
2022-02-17T14:50:00,pth,3.60
2022-02-17T14:52:00,pth,3.60
2022-02-17T14:54:00,pth,3.60
2022-02-17T14:55:00,pth,1.20
2022-02-17T14:57:00,pth,3.60
2022-02-17T14:59:00,pth,2.40
2022-02-17T15:01:00,pth,3.60
2022-02-17T15:03:00,pth,3.60
2022-02-17T15:04:00,pth,2.40
2022-02-17T15:05:00,pth,1.20
2022-02-17T15:07:00,pth,3.60
2022-02-17T15:09:00,pth,3.60
2022-02-17T15:10:00,pth,2.40
2022-02-17T15:12:00,pth,4.80
2022-02-17T15:14:00,pth,3.60
2022-02-17T15:16:00,pth,3.60
2022-02-17T15:17:00,pth,1.20
2022-02-17T15:19:00,pth,4.80
2022-02-17T15:21:00,pth,3.60
2022-02-17T15:23:00,pth,4.80
2022-02-17T15:25:00,pth,3.60
2022-02-17T15:26:00,pth,2.40
2022-02-17T15:28:00,pth,4.80
2022-02-17T15:30:00,pth,3.60
2022-02-17T15:32:00,pth,6.00
2022-02-17T15:33:00,pth,2.40
2022-02-17T15:35:00,pth,3.60
2022-02-17T15:37:00,pth,4.80
2022-02-17T15:39:00,pth,3.60
2022-02-17T15:41:00,pth,4.80
2022-02-17T15:42:00,pth,1.20
2022-02-17T15:44:00,pth,4.80
2022-02-17T15:46:00,pth,4.80
2022-02-17T15:47:00,pth,2.40
2022-02-17T15:49:00,pth,3.60
2022-02-17T15:51:00,pth,3.60
2022-02-17T15:52:00,pth,3.60
2022-02-17T15:54:00,pth,14.40
2022-02-17T15:56:00,pth,13.20
2022-02-17T15:58:00,pth,18.00
2022-02-17T15:59:00,pth,8.40
2022-02-17T16:01:00,pth,18.00
2022-02-17T16:03:00,pth,15.60
2022-02-17T16:04:00,pth,7.20
2022-02-17T16:06:00,pth,16.80
2022-02-17T16:08:00,pth,15.60
2022-02-17T16:10:00,pth,14.40
2022-02-17T16:11:00,pth,8.40
2022-02-17T16:12:00,pth,7.20
2022-02-17T16:14:00,pth,14.40
2022-02-17T16:16:00,pth,14.40
2022-02-17T16:17:00,pth,8.40
2022-02-17T16:19:00,pth,14.40
2022-02-17T16:21:00,pth,15.60
2022-02-17T16:23:00,pth,14.40
2022-02-17T16:25:00,pth,14.40
2022-02-17T16:27:00,pth,15.60
2022-02-17T16:28:00,pth,7.20
2022-02-17T16:29:00,pth,7.20
2022-02-17T16:31:00,pth,14.40
2022-02-17T16:32:00,pth,7.20
2022-02-17T16:33:00,pth,7.20
2022-02-17T16:35:00,pth,14.40
2022-02-17T16:37:00,pth,14.40
2022-02-17T16:39:00,pth,14.40
2022-02-17T16:41:00,pth,14.40
2022-02-17T16:43:00,pth,14.40
2022-02-17T16:44:00,pth,7.20
2022-02-17T16:46:00,pth,15.60
2022-02-17T16:48:00,pth,13.20
2022-02-17T16:50:00,pth,14.40
2022-02-17T16:51:00,pth,6.00
2022-02-17T16:53:00,pth,3.60
2022-02-17T16:55:00,pth,3.60
2022-02-17T16:56:00,pth,1.20
2022-02-17T16:58:00,pth,3.60
2022-02-17T17:00:00,pth,3.60
2022-02-17T17:02:00,pth,3.60
2022-02-17T17:04:00,pth,3.60
2022-02-17T17:05:00,pth,1.20
2022-02-17T17:07:00,pth,3.60
2022-02-17T17:09:00,pth,12.00
2022-02-17T17:11:00,pth,14.40
2022-02-17T17:12:00,pth,7.20
2022-02-17T17:14:00,pth,15.60
2022-02-17T17:16:00,pth,15.60
2022-02-17T17:18:00,pth,14.40
2022-02-17T17:20:00,pth,15.60
2022-02-17T17:22:00,pth,14.40
2022-02-17T17:24:00,pth,15.60
2022-02-17T17:26:00,pth,15.60
2022-02-17T17:28:00,pth,15.60
2022-02-17T17:30:00,pth,15.60
2022-02-17T17:32:00,pth,14.40
2022-02-17T17:33:00,pth,8.40
2022-02-17T17:35:00,pth,14.40
2022-02-17T17:37:00,pth,15.60
2022-02-17T17:39:00,pth,14.40
2022-02-17T17:41:00,pth,14.40
2022-02-17T17:42:00,pth,8.40
2022-02-17T17:44:00,pth,14.40
2022-02-17T17:46:00,pth,15.60
2022-02-17T17:48:00,pth,14.40
2022-02-17T17:50:00,pth,15.60
2022-02-17T17:51:00,pth,8.40
2022-02-17T17:53:00,pth,14.40
2022-02-17T17:55:00,pth,15.60
2022-02-17T17:57:00,pth,14.40
2022-02-17T17:58:00,pth,7.20
2022-02-17T18:00:00,pth,14.40
2022-02-17T18:01:00,pth,7.20
2022-02-17T18:02:00,pth,7.20
2022-02-17T18:04:00,pth,15.60
2022-02-17T18:06:00,pth,13.20
2022-02-17T18:07:00,pth,2.40
2022-02-17T18:09:00,pth,4.80
2022-02-17T18:11:00,pth,3.60
2022-02-17T18:12:00,pth,2.40
2022-02-17T18:14:00,pth,4.80
2022-02-17T18:15:00,pth,1.20
2022-02-17T18:16:00,pth,2.40
2022-02-17T18:18:00,pth,3.60
2022-02-17T18:20:00,pth,4.80
2022-02-17T18:22:00,pth,3.60
2022-02-17T18:24:00,pth,3.60
2022-02-17T18:25:00,pth,2.40
2022-02-17T18:27:00,pth,3.60
2022-02-17T18:29:00,pth,4.80
2022-02-17T18:31:00,pth,4.80
2022-02-17T18:33:00,pth,4.80
2022-02-17T18:34:00,pth,1.20
2022-02-17T18:36:00,pth,4.80
2022-02-17T18:37:00,pth,2.40
2022-02-17T18:39:00,pth,3.60
2022-02-17T18:40:00,pth,2.40
2022-02-17T18:42:00,pth,3.60
2022-02-17T18:43:00,pth,2.40
2022-02-17T18:45:00,pth,3.60
2022-02-17T18:47:00,pth,3.60
2022-02-17T18:48:00,pth,2.40
2022-02-17T18:50:00,pth,3.60
2022-02-17T18:52:00,pth,4.80
2022-02-17T18:54:00,pth,3.60
2022-02-17T18:56:00,pth,3.60
2022-02-17T18:58:00,pth,4.80
2022-02-17T18:59:00,pth,1.20
2022-02-17T19:01:00,pth,4.80
2022-02-17T19:03:00,pth,4.80
2022-02-17T19:05:00,pth,4.80
2022-02-17T19:07:00,pth,3.60
2022-02-17T19:08:00,pth,2.40
2022-02-17T19:10:00,pth,4.80
2022-02-17T19:12:00,pth,3.60
2022-02-17T19:14:00,pth,3.60
2022-02-17T19:15:00,pth,2.40
2022-02-17T19:17:00,pth,4.80
2022-02-17T19:19:00,pth,3.60
2022-02-17T19:20:00,pth,2.40
2022-02-17T19:22:00,pth,4.80
2022-02-17T19:24:00,pth,3.60
2022-02-17T19:26:00,pth,4.80
2022-02-17T19:28:00,pth,3.60
2022-02-17T19:30:00,pth,3.60
2022-02-17T19:32:00,pth,4.80
2022-02-17T19:34:00,pth,3.60
2022-02-17T19:36:00,pth,2.40
2022-02-17T19:38:00,pth,4.80
2022-02-17T19:39:00,pth,1.20
2022-02-17T19:41:00,pth,3.60
2022-02-17T19:43:00,pth,3.60
2022-02-17T19:44:00,pth,2.40
2022-02-17T19:46:00,pth,3.60
2022-02-17T19:47:00,pth,1.20
2022-02-17T19:49:00,pth,3.60
2022-02-17T19:51:00,pth,3.60
2022-02-17T19:53:00,pth,3.60
2022-02-17T19:55:00,pth,2.40
2022-02-17T19:57:00,pth,4.80
2022-02-17T19:59:00,pth,4.80
2022-02-17T20:01:00,pth,3.60
2022-02-17T20:02:00,pth,1.20
2022-02-17T20:04:00,pth,4.80
2022-02-17T20:06:00,pth,3.60
2022-02-17T20:08:00,pth,12.00
2022-02-17T20:09:00,pth,8.40
2022-02-17T20:11:00,pth,15.60
2022-02-17T20:13:00,pth,14.40
2022-02-17T20:14:00,pth,7.20
2022-02-17T20:16:00,pth,15.60
2022-02-17T20:17:00,pth,7.20
2022-02-17T20:19:00,pth,16.80
2022-02-17T20:21:00,pth,15.60
2022-02-17T20:22:00,pth,8.40
2022-02-17T20:23:00,pth,7.20
2022-02-17T20:24:00,pth,8.40
2022-02-17T20:26:00,pth,15.60
2022-02-17T20:28:00,pth,15.60
2022-02-17T20:29:00,pth,7.20
2022-02-17T20:31:00,pth,15.60
2022-02-17T20:32:00,pth,8.40
2022-02-17T20:34:00,pth,15.60
2022-02-17T20:36:00,pth,14.40
2022-02-17T20:38:00,pth,15.60
2022-02-17T20:40:00,pth,15.60
2022-02-17T20:42:00,pth,15.60
2022-02-17T20:44:00,pth,16.80
2022-02-17T20:46:00,pth,15.60
2022-02-17T20:47:00,pth,7.20
2022-02-17T20:49:00,pth,15.60
2022-02-17T20:50:00,pth,7.20
2022-02-17T20:52:00,pth,15.60
2022-02-17T20:54:00,pth,16.80
2022-02-17T20:56:00,pth,15.60
2022-02-17T20:58:00,pth,13.20
2022-02-17T20:59:00,pth,2.40
2022-02-17T21:01:00,pth,8.40
2022-02-17T21:02:00,pth,7.20
2022-02-17T21:04:00,pth,15.60
2022-02-17T21:06:00,pth,7.20
2022-02-17T21:07:00,pth,7.20
2022-02-17T21:08:00,pth,4.80
2022-02-17T21:10:00,pth,3.60
2022-02-17T21:12:00,pth,4.80
2022-02-17T21:14:00,pth,4.80
2022-02-17T21:16:00,pth,4.80
2022-02-17T21:18:00,pth,4.80
2022-02-17T21:20:00,pth,3.60
2022-02-17T21:22:00,pth,4.80
2022-02-17T21:24:00,pth,3.60
2022-02-17T21:26:00,pth,3.60
2022-02-17T21:28:00,pth,4.80
2022-02-17T21:29:00,pth,2.40
2022-02-17T21:31:00,pth,7.20
2022-02-17T21:32:00,pth,8.40
2022-02-17T21:34:00,pth,15.60
2022-02-17T21:36:00,pth,15.60
2022-02-17T21:38:00,pth,14.40
2022-02-17T21:39:00,pth,8.40
2022-02-17T21:41:00,pth,15.60
2022-02-17T21:42:00,pth,7.20
2022-02-17T21:43:00,pth,8.40
2022-02-17T21:45:00,pth,15.60
2022-02-17T21:47:00,pth,14.40
2022-02-17T21:48:00,pth,8.40
2022-02-17T21:50:00,pth,15.60
2022-02-17T21:52:00,pth,15.60
2022-02-17T21:53:00,pth,7.20
2022-02-17T21:55:00,pth,15.60
2022-02-17T21:56:00,pth,7.20
2022-02-17T21:58:00,pth,15.60
2022-02-17T22:00:00,pth,14.40
2022-02-17T22:01:00,pth,7.20
2022-02-17T22:03:00,pth,15.60
2022-02-17T22:04:00,pth,7.20
2022-02-17T22:06:00,pth,15.60
2022-02-17T22:07:00,pth,8.40
2022-02-17T22:08:00,pth,7.20
2022-02-17T22:10:00,pth,15.60
2022-02-17T22:12:00,pth,15.60
2022-02-17T22:14:00,pth,15.60
2022-02-17T22:16:00,pth,15.60
2022-02-17T22:17:00,pth,4.80
2022-02-17T22:19:00,pth,6.00
2022-02-17T22:20:00,pth,8.40
2022-02-17T22:22:00,pth,15.60
2022-02-17T22:24:00,pth,6.00
2022-02-17T22:25:00,pth,3.60
2022-02-17T22:27:00,pth,15.60
2022-02-17T22:28:00,pth,7.20
2022-02-17T22:29:00,pth,2.40
2022-02-17T22:31:00,pth,3.60
2022-02-17T22:33:00,pth,4.80
2022-02-17T22:34:00,pth,2.40
2022-02-17T22:35:00,pth,2.40
2022-02-17T22:37:00,pth,3.60
2022-02-17T22:39:00,pth,4.80
2022-02-17T22:41:00,pth,3.60
2022-02-17T22:43:00,pth,4.80
2022-02-17T22:45:00,pth,3.60
2022-02-17T22:46:00,pth,2.40
2022-02-17T22:48:00,pth,4.80
2022-02-17T22:49:00,pth,2.40
2022-02-17T22:51:00,pth,4.80
2022-02-17T22:53:00,pth,4.80
2022-02-17T22:55:00,pth,3.60
2022-02-17T22:57:00,pth,4.80
2022-02-17T22:58:00,pth,1.20
2022-02-17T23:00:00,pth,4.80
2022-02-17T23:02:00,pth,4.80
2022-02-17T23:04:00,pth,4.80
2022-02-17T23:06:00,pth,3.60
2022-02-17T23:08:00,pth,3.60
2022-02-17T23:10:00,pth,4.80